Temp
18 18 19 19 19 19 19 20 21 22 22 22 23 23 24 25 29 30 36 33 33 33 31 35 35 37 38 40 41 41 38 38 38 38 37 37 37 37 37 36 36 36 35 34 31
17 18 18 19 19 19 19 20 21 22 22 22 23 23 24 24 25 35 33 34 33 32 33 38 40 41 42 41 41 40 40 39 39 40 38 38 37 36 36 35 34 36 35 33 31
17 17 17 18 19 19 19 20 20 21 22 22 23 24 24 24 32 38 32 33 33 32 34 38 40 41 42 42 41 41 39 40 40 39 40 38 38 38 36 37 36 34 33 33 32
17 17 17 18 18 19 20 20 20 22 22 22 23 24 25 24 36 34 32 33 33 31 35 39 41 41 41 41 41 40 41 40 40 39 39 38 38 38 37 37 37 35 34 34 33
16 17 17 18 18 19 19 20 21 22 22 22 23 23 24 33 36 32 32 32 31 31 37 40 40 41 41 41 41 41 41 41 40 40 40 39 38 37 37 38 37 35 34 34 34
15 15 16 17 17 18 19 20 21 22 22 23 23 23 25 33 35 34 33 33 34 35 38 40 41 42 41 41 40 41 41 41 41 40 40 39 38 38 37 37 36 35 35 35 35
14 15 15 16 17 19 20 20 22 22 23 23 23 21 30 35 34 34 34 35 35 37 39 40 41 41 42 41 41 41 40 40 40 40 40 40 33 37 37 37 36 35 35 35 35
15 15 15 16 18 20 21 22 23 23 23 24 23 22 32 34 34 34 35 36 36 37 38 40 40 41 41 42 41 40 40 36 40 40 39 39 32 37 37 37 36 35 35 35 35
15 16 16 17 18 21 22 23 23 23 23 23 22 28 35 32 34 35 36 37 37 37 38 38 39 40 41 40 40 40 30 35 39 40 40 39 38 37 38 37 36 36 35 35 35
16 16 17 17 18 20 21 21 21 22 22 22 26 31 34 36 37 36 36 37 38 39 38 38 39 39 40 40 38 38 38 40 39 40 40 40 39 39 38 38 37 37 36 35 35
16 16 17 18 19 20 21 22 27 28 28 34 35 35 36 36 35 35 36 37 39 39 37 39 38 38 39 40 41 40 40 36 40 40 39 40 40 39 39 38 38 38 37 36 36
16 16 17 19 20 21 20 29 31 30 32 34 34 35 34 35 36 37 37 37 38 37 39 39 38 40 41 41 40 40 40 40 41 40 39 40 40 41 39 38 39 39 38 37 36
16 16 17 20 22 21 26 30 28 29 32 35 35 35 36 35 37 37 38 38 37 37 39 38 40 40 40 40 40 39 40 40 39 40 40 40 40 40 41 39 39 39 39 38 37
16 16 16 20 20 27 29 28 28 28 32 34 34 35 36 36 37 39 38 38 38 37 39 38 40 40 39 39 40 39 41 40 39 39 38 40 38 40 40 40 40 39 39 39 38
16 16 16 15 18 28 28 27 28 29 33 35 35 36 37 37 38 37 38 38 37 37 38 38 39 39 38 39 40 39 41 40 40 39 39 40 39 40 41 41 41 40 40 40 40
16 16 17 17 17 25 26 27 29 31 33 35 35 35 35 37 37 37 37 38 39 38 38 39 40 39 39 40 40 41 40 39 39 39 38 40 39 40 40 40 41 41 41 41 40
17 17 16 17 28 26 26 30 31 33 37 35 35 36 36 36 37 36 36 36 36 35 36 37 38 38 39 39 40 40 39 37 37 38 38 41 39 40 41 42 41 40 40 40 41
18 19 20 19 24 24 27 31 31 37 37 38 37 36 36 37 37 37 36 36 38 38 39 37 36 38 39 39 39 38 39 38 36 38 39 41 38 39 41 42 41 40 40 40 40
19 23 23 26 23 25 30 32 36 37 37 37 37 36 36 37 38 37 37 37 38 38 37 38 37 40 40 39 40 39 38 41 40 41 39 40 40 41 41 41 40 40 39 39 39
15 25 29 26 25 27 30 30 36 36 37 38 36 37 36 37 36 37 37 38 38 39 40 39 37 39 39 40 40 39 41 39 39 37 36 39 38 38 38 39 40 40 40 39 39
18 29 27 26 26 30 31 34 35 36 36 37 37 37 38 37 37 37 38 39 39 39 39 39 39 38 39 37 38 38 38 40 41 40 38 37 38 40 38 39 39 39 40 40 40
25 29 27 27 29 32 33 35 23 36 36 37 37 38 38 38 38 38 38 39 39 40 37 39 39 37 38 40 41 41 40 40 38 37 39 39 37 40 39 39 39 39 39 40 40
26 31 28 28 31 33 34 34 35 36 36 36 37 39 39 38 37 38 38 38 38 39 38 39 39 38 38 39 39 39 40 41 42 41 38 38 37 40 39 38 38 39 38 38 38
25 29 31 30 32 32 35 34 35 35 36 37 38 38 38 37 38 37 38 37 38 39 32 37 40 37 37 38 39 38 39 40 41 39 39 39 38 38 38 37 37 37 38 38 38
26 29 30 31 32 33 34 35 35 35 36 37 37 38 38 37 38 38 38 37 38 30 37 39 39 39 39 39 39 39 39 39 39 40 38 39 39 38 37 37 37 36 36 36 36
25 28 29 31 32 33 27 33 34 36 36 36 36 38 38 38 37 38 38 38 38 38 38 40 38 39 38 39 39 38 39 39 39 40 39 38 38 38 37 36 36 36 35 35 35
25 25 25 28 31 32 33 34 34 35 36 36 38 38 37 37 38 39 40 40 40 38 38 39 39 38 37 38 38 37 39 39 39 39 39 38 37 37 37 36 36 35 35 35 35
Height
803 800 797 795 792 790 788 785 782 780 778 776 773 770 767 764 758 756 750 750 750 751 750 748 746 739 736 725 722 718 744 758 755 755 759 747 753 748 747 756 753 755 761 771 783
803 800 797 794 791 789 787 784 782 780 777 775 773 769 767 762 758 750 748 749 750 750 749 743 733 729 723 724 719 723 741 751 735 732 747 747 748 753 757 761 764 759 763 775 784
803 800 797 794 791 788 785 783 781 779 777 774 771 769 766 763 754 738 743 747 749 749 748 741 736 727 722 721 725 728 745 733 734 733 732 744 748 742 752 757 757 767 771 776 782
804 800 796 793 790 787 784 782 779 777 776 773 771 769 766 765 762 741 744 745 747 749 749 740 732 730 727 732 724 739 729 731 731 733 736 742 739 747 748 751 748 759 769 775 779
805 801 797 793 789 786 783 780 777 776 774 772 770 769 766 757 744 743 745 745 747 749 745 737 734 728 734 727 727 732 728 724 727 730 730 734 742 746 750 746 751 761 769 773 776
804 801 797 792 788 784 781 777 775 773 772 770 770 769 767 760 743 744 745 746 746 747 741 736 731 724 730 730 734 727 723 725 724 729 729 741 747 741 747 746 756 763 768 771 773
803 799 795 791 786 781 777 774 772 770 769 768 768 768 760 745 743 743 744 742 743 742 737 734 730 732 722 731 723 725 735 726 724 724 732 735 775 755 743 747 758 764 766 768 771
803 798 794 790 784 779 774 771 769 767 766 766 766 769 751 739 742 743 742 741 741 741 738 733 734 731 727 719 727 737 732 759 729 725 728 739 792 751 741 748 757 761 765 767 770
801 797 792 787 781 776 772 768 766 765 764 764 766 762 745 739 739 738 738 736 738 739 739 739 737 736 730 745 742 736 796 776 743 725 730 737 751 744 738 745 754 759 763 767 770
799 795 790 785 779 774 770 767 766 765 765 766 763 760 738 732 730 734 735 733 734 735 739 741 739 746 741 746 767 763 756 743 751 737 734 739 742 738 739 742 749 754 759 764 767
797 793 787 782 776 772 770 769 765 761 758 736 733 733 730 729 735 734 734 732 730 734 751 739 752 757 744 735 729 738 737 768 736 736 745 743 740 736 737 740 743 746 755 759 764
796 791 785 780 774 771 770 760 753 757 750 734 734 732 734 731 733 728 731 736 737 748 737 742 755 733 726 726 735 740 746 742 731 733 744 741 742 725 732 739 737 740 745 753 757
794 789 783 777 772 770 766 758 759 757 749 727 727 730 730 732 728 727 727 727 738 744 738 746 734 727 731 736 742 747 745 739 745 735 733 739 743 736 724 729 731 731 733 738 748
792 787 781 775 774 766 760 760 760 759 754 735 732 726 725 724 728 713 723 725 732 743 735 738 722 728 735 740 736 757 728 733 742 757 769 734 778 737 729 732 727 728 729 731 739
790 785 779 776 772 763 761 761 760 757 764 723 723 715 717 722 714 723 720 721 738 739 735 743 736 736 743 739 734 747 725 734 740 750 751 745 761 738 721 729 722 724 722 724 727
786 782 775 773 772 763 763 761 760 767 756 728 718 728 728 720 718 719 724 721 718 731 729 729 713 725 734 727 727 724 733 743 744 751 774 745 751 745 734 732 721 714 717 716 719
782 777 772 772 760 763 763 758 763 754 706 729 729 722 724 727 723 729 736 741 745 759 755 741 737 728 723 737 726 732 748 780 784 773 772 725 746 741 720 713 717 722 716 713 713
776 771 767 765 764 764 761 757 763 712 714 699 709 718 728 717 722 726 733 740 726 727 729 752 763 734 722 733 738 744 744 767 795 776 753 720 757 743 712 707 711 713 712 713 714
772 765 764 759 761 762 755 754 726 711 701 712 712 727 725 717 718 724 728 730 719 720 741 736 745 712 716 721 722 734 755 725 743 728 748 735 729 718 713 715 716 717 717 718 718
775 762 751 756 759 758 754 746 716 705 705 702 725 716 730 725 732 726 728 713 716 712 707 718 744 720 722 717 717 727 713 749 743 779 784 751 756 752 739 734 719 718 720 721 722
773 751 750 754 757 751 749 725 714 705 708 710 709 716 711 721 719 721 720 706 705 711 710 710 720 734 723 739 737 738 740 728 722 733 763 771 758 722 735 729 728 724 716 716 719
766 752 749 752 753 736 732 713 734 708 705 706 702 700 704 707 716 711 714 707 697 701 727 710 715 741 737 714 705 712 726 724 750 763 743 746 762 715 723 724 723 725 722 720 719
760 738 746 747 745 728 720 719 714 711 707 709 707 692 689 704 720 707 706 702 703 706 719 707 719 740 740 727 718 729 715 712 709 712 746 760 761 715 720 727 727 727 726 728 726
765 744 735 740 728 725 716 719 719 707 705 699 696 693 702 709 701 715 712 710 703 703 714 706 706 729 742 727 718 735 724 718 714 736 735 736 743 735 731 734 734 732 729 729 729
760 737 727 732 729 722 713 710 717 717 706 701 707 700 702 713 709 711 705 713 709 722 713 711 718 713 713 712 713 718 721 724 731 719 740 732 732 733 733 735 736 734 734 734 735
758 744 734 726 718 718 731 720 715 704 705 710 709 701 697 705 710 711 705 709 717 712 715 703 726 715 729 719 720 730 720 719 723 718 722 735 730 721 728 734 738 739 740 742 743
758 758 755 731 722 723 715 715 712 706 702 699 696 699 704 701 697 691 685 683 689 709 714 712 712 730 742 723 729 743 722 722 719 717 720 732 723 718 732 736 740 741 740 743 744
Wind_Speed
17 17 16 17 17 17 16 16 16 16 16 17 19 20 20 22 18 9 11 2 1 5 5 7 9 11 10 6 5 6 2 10 15 15 11 7 10 11 12 9 6 3 17 21 26
18 18 17 17 18 18 17 16 16 15 16 17 18 19 19 21 15 15 7 8 8 9 8 10 7 6 10 2 4 6 9 13 10 15 11 8 8 10 9 8 8 10 24 25 25
19 19 18 17 18 18 18 17 16 15 15 17 18 16 17 17 12 9 6 12 12 13 13 13 11 12 7 1 4 5 10 6 12 9 11 10 11 6 10 8 11 14 20 22 24
20 19 19 19 18 18 18 18 16 15 15 16 16 15 15 8 5 7 2 11 14 14 15 15 12 16 7 3 3 3 6 4 8 3 8 7 7 8 11 8 13 17 20 20 20
21 21 21 21 21 20 19 18 16 15 16 15 13 13 8 10 14 3 1 7 12 15 17 14 12 9 7 3 4 6 5 6 6 5 9 6 6 9 10 12 15 18 19 19 18
21 22 22 21 24 24 21 19 18 17 16 14 11 9 8 14 2 2 4 9 16 18 18 15 11 8 9 4 8 6 7 6 8 7 6 4 7 5 11 13 15 18 18 17 18
22 23 24 24 28 25 21 20 18 17 15 13 8 4 11 12 1 7 4 12 20 20 16 16 13 11 6 10 2 5 12 10 9 6 4 2 17 4 14 14 16 16 16 17 16
23 24 26 29 29 23 20 18 16 14 11 8 4 6 8 2 8 9 9 10 14 19 20 15 9 15 14 4 11 12 13 3 3 1 6 9 20 12 14 14 15 16 15 15 16
24 26 28 31 30 22 19 15 9 4 1 4 5 9 12 2 11 14 13 13 16 17 14 4 12 14 16 12 15 11 11 16 10 6 6 2 6 11 11 13 14 15 15 15 16
24 27 29 33 29 21 11 5 2 3 2 5 10 8 9 13 12 10 11 11 16 16 14 14 10 15 15 14 14 7 9 6 3 7 6 6 4 10 11 14 14 15 16 16 16
25 28 31 33 28 18 6 4 5 7 12 11 3 8 2 4 5 11 13 15 17 16 18 19 16 19 21 19 19 11 8 16 11 6 10 7 6 15 11 13 14 15 16 17 18
25 29 32 32 25 10 5 7 9 7 9 18 13 11 3 5 10 15 17 13 15 17 20 18 21 21 18 20 16 8 15 8 7 7 8 9 11 8 14 12 13 14 17 16 18
26 29 35 31 17 5 10 10 4 9 7 13 12 13 11 11 12 17 16 17 14 17 18 21 18 18 21 19 16 14 18 13 6 2 13 9 15 3 13 14 12 14 14 18 18
27 29 36 32 7 4 10 3 6 5 6 14 12 10 10 12 11 19 21 15 8 16 18 13 16 15 20 18 12 19 16 15 3 7 11 4 8 9 16 11 16 14 15 16 19
27 31 35 20 14 7 5 4 7 6 6 14 13 12 14 14 19 10 19 12 14 14 12 16 17 15 18 14 17 18 17 8 7 13 15 15 8 5 7 5 8 12 15 15 18
29 34 32 3 8 12 6 7 6 7 4 9 10 13 17 17 13 15 14 11 11 12 14 17 10 10 15 18 18 18 17 9 12 14 13 14 12 3 1 4 5 6 7 10 16
32 32 20 7 1 3 6 8 7 11 10 10 14 19 18 15 13 15 17 17 11 11 13 16 11 13 14 15 16 17 15 10 13 14 11 15 3 7 11 6 9 4 1 4 13
35 22 9 12 6 5 8 8 10 3 6 10 16 17 17 15 15 17 17 15 18 15 10 13 14 15 13 17 11 13 17 13 11 11 12 5 3 3 6 3 8 4 4 6 11
33 7 9 5 9 8 7 11 6 5 6 9 16 16 15 16 8 13 17 16 16 13 15 10 14 19 12 16 17 16 15 21 20 19 7 6 10 6 10 9 7 9 9 10 9
19 14 10 5 10 11 8 17 6 5 7 6 12 13 14 15 10 12 14 15 13 14 15 5 9 9 10 11 13 14 8 13 6 6 4 5 2 10 12 5 6 11 11 11 10
9 6 7 9 10 8 10 15 1 5 8 9 10 12 10 14 16 13 15 9 13 12 12 12 13 10 11 12 14 9 10 8 10 4 5 7 9 16 10 6 8 6 6 10 13
11 8 10 11 8 10 13 8 2 8 8 7 9 11 12 13 11 11 8 6 11 13 14 16 8 9 14 14 17 16 12 13 6 11 6 10 10 13 12 9 7 9 8 8 2
5 7 9 12 8 10 15 7 8 7 11 10 9 7 2 8 4 5 4 8 6 11 12 13 8 10 12 10 10 11 9 13 16 7 6 9 9 13 12 11 9 9 9 6 4
5 5 6 8 13 14 15 13 13 9 4 7 4 5 9 7 5 6 8 5 12 14 9 8 18 13 10 13 16 16 7 10 14 7 9 7 17 12 11 12 10 9 8 9 7
5 7 6 7 12 13 10 10 12 9 12 10 9 11 12 5 10 8 14 13 10 4 7 12 15 6 9 7 2 4 9 9 13 12 7 8 15 14 11 11 11 10 8 9 8
5 5 5 12 3 9 7 14 13 12 10 14 11 11 6 5 9 13 12 14 13 11 14 14 7 2 4 1 5 8 12 6 12 5 5 13 17 16 14 10 10 10 10 10 9
4 12 5 9 13 11 13 16 12 0 7 11 10 9 11 11 8 7 10 3 9 14 16 14 7 6 9 5 3 12 10 11 9 8 13 8 19 16 12 11 9 7 8 7 6
Wind_Direction
351 347 343 339 336 335 332 328 327 327 327 328 329 331 332 331 318 284 253 139 133 216 219 236 243 254 224 242 263 12 239 67 67 77 102 124 98 69 99 133 87 105 142 142 148
353 349 344 339 335 332 331 327 324 323 323 324 326 328 331 329 312 267 229 232 229 206 233 235 284 284 239 184 299 355 61 70 9 86 96 113 86 109 126 117 119 113 111 143 155
355 351 346 341 336 332 330 326 321 319 319 320 321 326 328 326 276 230 201 213 221 201 242 283 286 274 264 285 1 57 74 58 77 24 92 104 112 127 166 129 136 139 142 154 160
358 354 348 343 338 330 326 321 317 313 314 316 318 323 321 300 233 89 189 204 208 208 244 259 254 254 299 96 95 187 92 24 95 101 112 94 122 116 60 55 120 142 152 159 165
358 354 350 346 341 332 324 319 312 309 309 309 312 323 327 230 255 108 150 207 198 203 232 243 264 277 285 344 242 301 93 124 110 152 120 140 126 103 99 104 122 142 158 164 172
357 354 348 344 339 329 321 315 310 305 304 301 303 312 253 252 61 152 212 199 202 209 228 243 258 340 307 307 315 3 265 122 181 118 139 160 126 186 123 128 136 152 163 170 174
353 351 348 341 335 327 316 310 306 303 299 290 286 274 265 248 228 214 222 209 207 212 232 233 260 260 282 243 44 264 243 176 169 160 142 288 352 157 138 139 147 163 171 172 175
348 346 347 343 338 328 320 310 303 300 291 273 237 233 263 91 239 226 222 211 209 215 233 249 234 267 274 317 239 252 260 342 112 107 117 268 159 119 149 158 161 171 178 177 175
344 344 343 343 340 329 321 310 303 304 234 152 197 231 254 173 214 208 211 205 198 205 217 282 251 240 240 254 247 206 91 266 133 62 338 268 69 121 163 175 172 179 179 180 181
340 341 341 342 340 330 327 315 194 135 171 234 266 249 242 225 174 190 201 228 188 193 204 216 224 233 241 223 249 6 134 214 56 72 325 258 127 145 181 190 184 186 180 185 188
337 339 339 341 338 326 303 269 216 198 209 239 242 252 124 130 188 216 183 206 194 195 210 204 219 226 228 229 273 289 296 281 121 85 306 331 311 151 178 195 195 189 186 193 196
335 337 337 340 333 309 282 260 43 344 291 210 246 254 265 278 191 195 185 196 203 206 212 214 228 229 234 249 236 242 272 247 174 121 268 306 301 169 163 201 212 203 186 199 191
335 336 336 339 328 260 244 313 331 332 256 196 215 224 211 204 224 183 197 208 196 217 212 230 215 230 245 235 246 237 248 267 333 87 280 257 264 140 164 183 210 211 208 189 199
335 335 335 336 301 315 251 197 308 308 266 153 191 210 183 215 226 180 199 204 217 234 229 232 252 244 223 243 231 240 233 271 279 268 279 31 299 257 149 198 190 198 206 204 191
332 333 330 326 300 251 32 290 307 247 258 151 138 127 179 210 137 182 194 208 232 220 232 223 225 229 252 226 236 244 260 296 264 254 263 244 254 269 211 237 135 183 191 209 194
330 332 325 306 228 248 292 290 258 232 230 149 142 183 175 214 193 150 179 231 246 218 230 247 183 252 237 235 237 246 240 252 262 254 263 268 236 210 102 37 13 135 178 207 196
327 328 307 265 4 264 253 245 224 250 125 150 174 172 188 188 174 175 188 200 201 202 208 222 208 229 249 231 225 232 231 238 232 234 241 251 120 317 330 341 48 334 141 184 190
326 317 285 231 250 251 231 230 253 231 190 147 157 179 196 180 181 188 194 205 222 220 220 199 208 215 193 242 198 223 236 234 228 252 264 51 196 349 42 295 83 123 119 140 174
329 300 237 248 216 219 239 229 234 181 99 178 157 185 200 180 219 199 211 215 204 223 249 191 242 170 206 214 240 196 222 241 262 279 263 313 79 171 82 50 109 109 122 127 147
323 284 233 201 194 212 241 262 322 346 306 225 193 199 194 183 208 198 189 212 209 204 258 282 203 161 179 211 233 273 219 221 238 279 321 124 237 105 85 62 109 132 125 126 138
281 244 122 160 184 221 234 238 254 206 236 230 234 204 191 181 212 205 166 156 216 176 223 272 246 154 161 207 197 197 236 250 280 342 310 245 101 104 113 85 84 103 126 139 149
282 247 150 175 216 223 233 245 18 244 192 257 288 205 194 177 218 202 175 224 187 175 204 241 279 163 192 193 231 208 218 225 216 207 228 314 105 103 104 102 82 89 62 68 44
272 280 168 209 234 217 235 244 235 211 197 192 220 209 248 178 197 236 181 74 196 184 195 223 244 143 158 174 209 239 229 252 237 250 106 282 111 129 114 93 69 74 101 96 121
274 232 167 211 261 283 216 211 206 216 278 266 269 208 186 176 235 166 145 149 181 206 9 305 272 66 253 180 163 211 196 257 286 214 178 186 133 126 113 110 100 87 88 93 82
245 250 16 199 227 231 263 236 215 182 229 211 215 214 214 177 173 172 125 137 173 102 214 246 267 111 50 76 44 324 186 200 267 279 52 22 118 113 105 99 96 97 92 92 77
291 297 323 275 354 230 179 235 232 204 196 198 239 211 230 258 9 155 162 175 173 173 222 238 278 249 169 205 263 206 244 251 229 272 276 186 109 121 121 121 110 109 105 99 81
286 274 267 267 247 219 220 225 218 125 213 290 222 187 219 76 1 16 318 223 153 189 213 231 229 205 245 140 260 248 195 216 206 208 244 232 126 134 140 134 124 119 106 87 67